DELTA 1 DEB, 10757

Orbit data source: Space-Track

DELTA 1 DEB, 10757 is space debris in SSO originally from a launch on Thu, 29 Jul 1976 UTC launched from the Air Force Western Test Range (AFWTR). Debris objects in space refer to the collection of defunct objects orbiting the Earth. Examples of debris include non-operational satellites, rocket bodies, and fragments generated from explosions, collisions, or faulty payload assembly.

Loading next visibility...
Identifier
10757, 1976-077BE
Orbit
SSO
Country
Flag of USUS
Related business
Manufacturer
Unknown
Mission
Spacecraft
Bus & Motor
Unknown
Mass
Unknown
Launch date (UTC)
1976-07-29 (50 years ago)
Launch vehicle
Unknown
Launch site
Air Force Western Test Range (AFWTR)
Object type
Payload
Rocket body
Debris
Shape & HBR
Unknown shape, 0.1 m
Radar Cross Section
Medium (>0.1 m² and <1 m²)

Expand to show TLE details & history
Last TLE update: 1 day ago

TLE from 1 day ago
0 DELTA 1 DEB
1 10757U 76077BE  26265.04107285  .00000239  00000-0  31706-2 0  9998
2 10757 101.9115 302.5257 0233368 238.2186 149.2320 12.00613372195314
Epoch: 2026-09-22T00:59Z
TLE epoch observation values (Epoch: 2026-09-22T00:59:08.694Z)
Latitude
28.14867°
Longitude
-79.62267°
Altitude
1,843.912 km
Speed
6.896 km/s
True Right ascension
19h 44m 18s
True Declination
28° 01' 29"
Sunlit
Object was in daylight at epoch
Visualization orbit readout
Latitude
Unknown
Longitude
Unknown
Altitude
Unknown
Speed
Unknown
Apparent Right ascension
Unknown
Apparent Declination
Unknown
Sunlit
N/A
Visualization observer readout
Local Sidereal Time
17:49:50
Azimuth
Unknown
Elevation
Unknown
Doppler factor
Unknown
Orbital elements
Apogee altitude
1,863.686 km
Perigee altitude
1,487.783 km
Semi-major axis
8,053.872 km
Eccentricity
0.02334
Inclination
101.9115°
RAAN
302.5257°
Arg. of periapsis
238.2186°
True anomaly
150.56642°
Mean anomaly
149.232°
Eccentric anomaly
149.90252°
Mean motion
3.00287 °/min
Orbital period
119.89 mins
BSTAR
0.0031706
Loading maneuver chart data...
Computing Atmospheric mass density...
Loading historical data...
Loading historical data...
Loading historical data...
Loading historical data...
Loading historical data...
Loading historical data...
Loading historical data...

Documentation

Showing up to 5 results
|